Regional Weather Roundup
Issued by NWS Columbia, SC

Home | Current Version | Previous Version | Text Only | Print | Product List | Glossary On
Versions: 1 2 3 4 5 6 7 8 9 10 11 12 13 14 15 16 17 18 19 20 21 22 23 24 25 26 27 28 29 30 31 32 33 34 35 36 37 38 39 40 41 42 43 44 45 46 47 48 49 50
000
ASUS42 KCAE 012110
RWRCAE
REGIONAL WEATHER ROUNDUP
NATIONAL WEATHER SERVICE COLUMBIA SC
500 PM EDT WED JUL 01 2015

NOTE: "FAIR" INDICATES FEW OR NO CLOUDS BELOW 12,000 FEET WITH NO
SIGNIFICANT WEATHER AND/OR OBSTRUCTIONS TO VISIBILITY.

NOT ALL STATIONS ARE QUALITY CONTROLLED BY THE NATIONAL
WEATHER SERVICE. USE DATA WITH CAUTION...ESPECIALLY
DEWPOINT OBSERVATIONS.

SCZ001>056-GAZ040-063>065-077-012200-
...UPSTATE SOUTH CAROLINA...

CITY           SKY/WX    TMP DP  RH WIND       PRES   REMARKS
ANDERSON       PTSUNNY   84  67  56 SW14      29.99S
SPARTANBURG      N/A     82  68  61 SW9       29.97S
CLEMSON        PTSUNNY   84  68  58 SW7       30.00S
GREENVILLE     CLOUDY    83  66  56 W12       29.99S
GREENWOOD      PTSUNNY   85  68  56 SW14      29.99F
GREER          CLOUDY    84  68  58 W13       29.96F
ROCK HILL      PTSUNNY   83  67  58 SW10      29.95F
CHESTER        MOCLDY    86  64  48 CALM      29.97S
LAURENS        CLOUDY    82  73  74 SW10      29.97S


...CENTRAL SOUTH CAROLINA...

CITY           SKY/WX    TMP DP  RH WIND       PRES   REMARKS
COLUMBIA APT   CLOUDY    88  67  49 SW12      29.96S
COLUMBIA OWENS PTSUNNY   88  67  49 SW10      29.97F
DARLINGTON     PTSUNNY   86  72  62 S8        29.95F
FLORENCE       MOSUNNY   86  70  58 SW9       29.95F
MCENTIRE ANGB  MOSUNNY   87  68  52 W10       29.97S
ORANGEBURG     MOSUNNY   87  69  54 SW12      29.98S
SUMTER SHAW    MOSUNNY   86  70  58 SW8       29.94F
NEWBERRY       MOCLDY    84  64  51 SW15      30.00S
BARNWELL       FAIR      88  72  58 SW8       29.99F
MANNING        MOCLDY    84  64  51 SW8       29.97S
CAMDEN         FAIR      86  68  54 SW9       29.96S
LANCASTER      MOCLDY    82  68  61 SW8       29.96S
WINNSBORO      MOCLDY    86  68  54 SW7       29.96F


...EASTERN AND COASTAL SOUTH CAROLINA...

CITY           SKY/WX    TMP DP  RH WIND       PRES   REMARKS
MYRTLE BEACH   PTSUNNY   88  68  51 W12       29.97F
N MYRTLE BCH   PTSUNNY   86  73  65 SW8       29.95F
CONWAY         FAIR      84  70  61 SW8       29.96F HAZE
MARION         FAIR      84  70  61 SW5       29.95F
HARTSVILLE     MOCLDY    84  68  58 SW5       29.94F
FLORENCE       MOSUNNY   86  70  58 SW9       29.95F
DARLINGTON     PTSUNNY   86  72  62 S8        29.95F
CHARLESTON APT PTSUNNY   88  70  55 W9        29.98F
MOUNT PLEASANT FAIR      88  70  55 SW8       29.98F
WALTERBORO     MOCLDY    86  70  58 SW12      29.99S
BEAUFORT       PTSUNNY   88  71  57 SW15      29.99F


...EASTERN GEORGIA...

CITY           SKY/WX    TMP DP  RH WIND       PRES   REMARKS
AUGUSTA BUSH F MOSUNNY   88  68  51 W12       29.98S
AUGUSTA DANIEL MOSUNNY   87  69  54 CALM      30.00S
THOMSON        MOSUNNY   88  74  63 SW5       30.04F HX  96
WASHINGTON     FAIR      86  72  62 SW9       30.00S
CLAXTON        MOCLDY    88  72  58 W7        30.00F
SYLVANIA       PTCLDY    88  74  61 SW6       30.01F HX  96
STATESBORO     PTSUNNY   88  76  67 W6        30.01S HX  98
SAVANNAH       PTSUNNY   89  69  51 SW10      30.00F


...SOUTHERN NORTH CAROLINA...

CITY           SKY/WX    TMP DP  RH WIND       PRES   REMARKS
CHARLOTTE      CLOUDY    85  64  49 SW15      29.94F
MONROE         MOSUNNY   86  65  49 SW12      29.94F
WADESBORO      CLEAR     86  66  51 SW5       29.93S
ROCKINGHAM     CLEAR     85  68  56 S8        29.93F
RUTHERFORDTON  CLOUDY    81  68  65 SW5       29.98R
ASHEVILLE      CLOUDY    78  62  57 NW6       30.04R

$$


USA.gov is the U.S. government's official web portal to all federal, state and local government web resources and services.